Wind_Speed
11 12 11 10 10 13 7 1 2 2 2 2 3 5 4 2 1 2 2 2 1 1 0 0 1 1 2 4 5 7 8 10 10 11 10 9 8 8 9 9 10 11 11 11 10 10 10 9 9
9 9 8 7 9 11 3 4 3 2 1 1 2 2 2 3 3 4 3 2 2 1 2 2 2 3 4 5 6 7 9 9 9 10 10 10 9 8 8 9 9 10 11 10 10 10 9 9 9
6 6 6 4 6 8 1 5 4 4 3 3 3 3 2 3 3 4 3 3 2 2 3 3 4 4 5 6 7 8 9 9 9 9 10 9 9 9 9 9 10 10 11 11 10 10 9 9 9
4 5 4 5 4 4 2 6 4 5 5 6 6 6 6 5 5 5 5 4 4 4 4 4 5 5 6 7 7 8 9 10 10 10 10 10 10 10 10 10 11 12 11 11 11 10 10 10 10
3 4 3 4 4 2 6 8 7 7 7 8 8 8 8 8 8 7 6 5 4 4 4 4 5 6 7 8 9 10 11 12 12 12 12 12 12 12 12 13 13 13 13 12 11 11 11 11 11
5 5 3 9 10 6 5 8 8 9 7 9 10 9 9 8 8 7 6 5 4 3 4 5 6 7 9 10 11 12 13 14 15 14 14 14 14 15 15 16 16 15 15 14 13 13 13 13 13
8 7 4 8 16 9 6 8 10 10 9 9 11 11 10 9 8 6 5 4 3 4 5 7 9 10 12 13 14 15 16 17 18 18 18 18 18 19 19 20 20 19 18 17 17 17 16 16 17
11 9 6 5 18 16 6 7 11 12 13 11 13 14 11 10 8 7 6 5 6 7 9 11 13 14 15 16 17 18 19 20 21 21 22 22 23 23 23 24 24 24 23 22 21 21 21 21 21
13 12 6 5 15 15 11 8 11 13 17 15 14 18 13 11 9 8 8 9 10 11 12 14 16 17 18 19 20 20 21 23 24 25 26 27 27 27 28 28 28 27 27 27 26 26 26 26 26
16 15 8 10 15 12 12 10 11 12 14 17 20 18 13 11 11 11 11 12 14 16 17 18 19 20 21 22 23 24 24 25 26 27 28 29 30 30 30 30 31 31 31 30 30 30 30 30 30
19 19 16 17 18 20 17 12 12 13 18 24 28 22 11 8 12 14 15 17 18 20 21 22 23 24 25 26 25 26 27 27 28 29 29 30 31 32 32 32 32 33 34 33 33 33 33 33 33
23 23 25 26 24 25 24 19 15 14 20 28 33 31 15 12 15 19 20 21 22 24 25 26 27 28 29 29 30 29 29 29 28 29 29 30 31 31 32 32 32 33 33 34 34 34 33 33 34
24 24 26 27 27 26 25 23 21 18 20 29 35 34 28 22 20 23 24 25 26 28 29 30 31 31 32 32 33 32 31 31 30 29 29 28 29 30 30 30 31 31 31 31 31 31 32 32 32
23 26 27 26 25 25 25 24 22 20 21 30 36 34 28 26 24 27 29 29 30 32 33 34 35 35 35 34 34 33 32 31 31 30 30 30 30 30 30 29 28 27 27 27 27 28 29 30 31
24 26 26 25 24 22 23 24 22 18 20 29 34 35 33 30 30 33 34 34 35 37 37 38 38 37 37 35 34 32 32 32 32 32 31 31 30 30 29 28 27 26 25 26 26 27 29 29 30
21 22 23 21 20 19 24 25 20 17 24 30 34 34 35 34 35 37 38 40 41 41 41 41 41 39 37 35 33 32 32 32 32 31 31 29 28 28 27 26 25 24 24 24 24 25 26 28 29
13 17 16 15 16 22 24 23 18 20 28 31 33 35 37 37 39 42 43 44 45 45 44 44 43 40 37 35 34 33 32 32 31 30 29 28 27 26 25 24 23 22 22 22 22 23 24 26 27
9 11 13 12 16 25 25 22 20 23 28 31 34 38 40 41 42 45 46 46 46 46 44 42 42 39 36 35 34 33 32 32 31 30 29 28 27 25 23 22 21 20 20 21 21 22 24 25 27
16 14 13 13 17 24 26 26 25 27 31 33 37 40 42 42 45 46 47 43 42 43 42 40 38 36 36 35 35 34 32 30 30 29 27 26 25 24 22 21 19 19 20 20 21 22 23 25 27
9 12 15 17 20 24 29 30 27 28 30 35 38 39 39 43 44 46 44 37 38 40 40 36 34 34 34 34 34 33 32 30 29 27 26 25 24 22 21 20 20 20 20 21 22 23 24 25 27
7 10 13 18 22 24 24 22 20 19 24 32 35 34 37 40 43 40 38 36 34 30 24 26 30 32 34 36 35 34 33 31 29 27 25 24 23 22 22 21 21 21 22 23 24 24 24 25 27
11 14 18 20 21 20 17 19 18 20 26 32 32 32 35 37 39 41 42 41 39 37 39 35 31 31 34 35 35 33 31 30 28 27 25 23 23 23 23 23 24 24 24 25 25 25 25 25 26
12 15 16 14 13 13 13 17 20 23 27 29 30 32 35 37 38 39 40 41 42 41 39 39 36 35 33 34 35 33 31 29 26 25 25 24 24 25 25 26 26 26 26 26 27 27 27 26 27
11 10 8 10 16 20 21 20 20 22 25 28 30 32 34 35 36 37 38 39 40 40 40 40 38 37 36 36 35 34 33 30 28 27 27 27 27 28 28 29 30 30 30 29 28 29 28 28 28
13 12 10 14 21 25 20 11 19 21 24 27 29 30 31 32 34 36 37 38 39 40 40 40 41 39 38 39 39 37 35 34 33 31 30 30 31 32 32 32 32 33 33 31 31 30 29 29 29
11 9 11 16 18 20 23 20 24 25 28 30 30 31 32 34 36 38 39 41 42 43 43 44 44 45 44 43 43 42 41 40 39 37 36 35 35 35 36 36 35 35 35 34 33 31 30 30 29
13 10 11 15 15 13 16 28 30 30 31 31 32 35 37 39 40 41 43 45 46 48 49 49 50 50 49 49 49 48 47 47 45 44 43 42 41 40 40 39 38 38 38 37 35 33 32 31 30
16 16 15 15 16 16 15 27 31 33 34 34 37 39 40 41 43 44 46 48 50 52 53 54 54 55 55 55 54 54 54 54 53 51 51 50 48 46 45 44 42 41 39 38 37 35 33 32 31
14 16 18 19 19 21 21 28 32 35 37 39 40 41 42 44 46 48 50 52 53 55 57 58 58 59 59 59 59 59 59 59 59 58 57 56 55 54 52 49 47 45 42 40 39 37 35 34 33
14 19 21 22 22 23 25 32 33 36 39 41 43 46 48 50 51 53 55 57 58 59 61 62 63 64 64 64 64 63 63 63 63 63 63 62 61 59 57 55 53 50 47 44 42 39 37 35 33
Wind_Direction
86 84 91 95 92 80 82 271 272 291 259 177 180 198 219 227 272 187 200 189 210 215 185 241 279 290 309 320 324 327 331 334 338 343 348 351 356 4 10 13 14 13 10 8 5 1 358 357 358
94 93 101 100 94 101 127 286 310 332 312 229 193 208 189 185 192 184 189 198 217 243 247 256 267 279 292 303 311 316 320 323 328 332 336 339 341 346 352 357 1 2 0 358 355 353 348 344 342
114 109 105 86 90 110 126 300 326 311 294 286 273 273 254 231 212 202 216 216 225 251 258 263 271 281 291 300 307 312 314 317 318 321 324 326 328 332 336 341 346 349 350 349 348 346 343 338 333
141 120 112 61 24 62 315 301 307 295 294 281 276 271 267 261 245 241 245 242 249 260 266 277 289 297 302 306 309 311 312 311 311 312 313 315 316 320 324 328 332 336 339 341 343 344 344 342 337
180 153 111 359 284 277 286 295 294 289 295 290 284 280 270 265 259 255 256 258 267 275 282 295 308 316 320 319 317 315 313 310 308 306 306 307 309 312 314 317 320 323 326 328 332 335 337 338 336
218 201 101 297 276 222 260 276 281 282 292 293 286 283 279 270 261 262 257 262 274 291 306 319 325 328 328 326 322 318 314 310 306 303 302 301 303 305 306 308 309 311 313 314 315 318 320 322 323
236 229 199 291 292 252 215 283 285 288 297 289 288 288 280 271 265 263 259 266 283 307 317 324 326 326 325 321 318 314 311 307 304 300 298 297 297 297 298 298 299 299 299 300 302 303 305 307 308
245 233 210 286 293 287 269 272 276 279 276 277 291 282 269 266 258 260 266 277 293 307 314 318 321 321 320 318 314 310 307 303 300 296 294 292 291 291 291 291 291 291 290 291 292 294 295 297 298
246 236 211 273 276 273 259 255 269 276 283 294 281 269 263 253 252 262 274 285 296 302 308 313 318 318 317 316 313 309 305 301 297 294 291 289 288 287 286 286 286 287 287 287 287 288 289 290 291
243 233 210 256 254 257 259 256 263 272 277 276 260 242 239 251 259 268 278 289 299 303 306 311 316 316 315 315 314 310 306 302 297 293 290 288 286 284 283 284 285 285 285 285 285 285 286 286 286
242 232 218 234 242 240 247 268 271 272 275 270 262 235 202 257 278 281 286 292 298 303 306 309 313 314 313 311 311 308 305 303 299 295 291 287 284 282 281 280 280 282 283 283 283 282 282 282 282
246 239 232 237 242 246 249 250 248 254 266 272 273 274 276 274 283 287 288 292 296 300 303 306 309 311 311 309 308 307 305 302 299 295 293 290 287 284 283 282 281 279 279 280 281 283 284 284 282
250 248 245 248 251 254 255 250 247 248 261 274 278 284 282 283 282 283 286 290 294 297 299 302 305 306 306 306 306 305 304 303 301 297 294 292 290 288 286 284 283 283 282 281 281 282 283 283 282
257 251 248 249 254 257 259 256 250 248 263 275 278 281 287 289 282 284 288 290 292 294 296 298 300 302 302 302 303 303 302 302 301 299 295 292 290 290 289 287 288 287 286 286 286 286 286 287 288
263 261 260 256 256 261 265 261 256 254 257 266 275 282 283 283 282 286 289 290 290 291 292 294 295 296 297 298 299 300 301 301 300 298 295 292 290 289 287 286 285 286 285 284 285 287 287 288 288
271 269 264 260 259 261 258 259 257 262 255 254 263 271 277 281 283 285 287 287 287 287 288 289 290 291 292 294 296 297 299 300 299 297 295 293 290 287 285 284 283 283 283 284 286 288 290 290 289
295 291 283 270 255 246 253 262 257 256 256 255 261 269 275 281 283 284 283 283 283 283 283 284 285 287 288 290 293 294 297 299 297 296 294 291 287 285 282 279 279 280 281 284 287 290 293 294 294
269 268 275 273 245 241 249 256 252 251 258 261 266 273 278 281 282 280 279 279 278 278 279 279 280 282 284 287 290 292 295 296 294 292 290 287 284 280 275 274 274 277 281 285 289 294 297 299 299
233 220 218 224 236 250 256 258 256 254 259 265 270 274 279 278 279 279 275 271 273 275 275 274 273 276 281 284 288 290 292 294 293 289 285 281 277 272 269 269 272 276 280 285 290 294 298 301 302
257 251 241 238 245 252 261 269 268 261 263 269 271 275 276 275 273 268 264 257 265 267 265 265 269 277 281 285 287 290 292 293 293 288 282 276 270 264 262 265 271 275 280 284 288 293 298 301 304
263 251 248 244 245 256 271 282 283 274 263 266 273 278 280 278 279 277 275 273 273 269 275 284 277 280 285 288 289 292 292 291 290 286 279 272 266 261 262 266 270 275 279 283 286 290 295 300 304
275 264 255 259 263 266 266 274 276 263 256 263 275 285 289 290 287 286 287 287 287 287 295 299 292 290 290 292 292 291 291 290 289 284 276 268 262 261 263 266 270 275 280 283 285 289 294 299 303
282 276 276 276 278 272 261 262 257 257 262 271 279 287 290 291 290 288 289 291 293 295 295 299 299 297 294 294 293 290 293 292 289 283 276 271 266 262 264 268 271 275 279 284 286 290 294 298 302
310 304 296 293 287 273 256 241 247 259 276 286 288 290 290 291 290 288 289 290 291 293 295 296 296 298 296 295 294 293 292 292 288 282 277 274 270 267 265 268 271 274 278 281 284 288 292 295 299
307 309 308 306 311 314 317 261 253 268 284 291 293 293 293 293 292 290 290 290 291 291 293 293 295 294 293 292 292 290 288 286 283 279 277 276 274 271 269 269 271 274 277 278 280 284 288 291 295
321 320 317 309 305 313 318 301 280 281 281 286 292 296 297 297 295 293 293 292 292 292 292 291 290 290 289 288 288 287 285 282 280 278 276 274 272 271 271 271 272 273 275 276 277 279 283 287 290
336 325 299 294 300 301 301 292 287 285 282 281 290 296 298 298 296 294 293 292 291 291 291 290 289 288 287 285 284 283 282 280 278 276 275 273 272 270 270 270 271 271 272 273 275 276 278 281 285
319 327 324 316 307 295 292 294 294 298 299 295 297 297 299 298 296 293 291 290 289 288 288 287 286 285 284 283 282 280 279 277 275 274 272 272 271 270 268 267 267 267 268 269 270 272 273 276 279
307 316 312 308 304 298 294 290 290 295 294 296 298 298 298 297 295 294 292 290 289 288 287 286 285 283 282 281 279 278 276 275 274 272 271 270 269 268 266 265 264 265 266 266 265 266 267 270 273
309 318 318 315 312 307 303 294 295 295 297 299 300 299 298 296 295 293 292 291 289 288 287 285 284 283 282 280 278 277 275 274 273 271 270 269 268 267 266 264 263 262 264 264 262 260 261 264 267
Height
5919 5919 5919 5920 5920 5918 5921 5921 5919 5917 5916 5916 5915 5914 5913 5914 5915 5918 5916 5916 5916 5916 5916 5916 5916 5916 5916 5916 5916 5915 5914 5913 5912 5911 5910 5910 5909 5908 5907 5905 5904 5903 5902 5901 5900 5899 5898 5898 5897
5920 5921 5921 5921 5918 5918 5921 5920 5919 5918 5917 5916 5915 5915 5914 5914 5914 5915 5915 5915 5915 5915 5916 5916 5916 5916 5915 5915 5915 5914 5914 5913 5912 5911 5910 5909 5909 5908 5907 5906 5905 5904 5902 5901 5900 5899 5899 5898 5897
5921 5922 5922 5921 5919 5918 5921 5920 5919 5918 5917 5916 5916 5916 5915 5915 5915 5914 5915 5915 5915 5915 5915 5915 5915 5915 5914 5914 5913 5913 5912 5912 5911 5911 5910 5909 5908 5908 5907 5906 5905 5903 5902 5901 5900 5899 5898 5898 5897
5922 5922 5923 5922 5921 5919 5920 5921 5919 5918 5917 5916 5916 5916 5915 5915 5915 5914 5914 5914 5914 5914 5913 5913 5913 5913 5913 5912 5912 5912 5911 5911 5910 5910 5909 5908 5908 5907 5906 5905 5904 5903 5902 5901 5900 5899 5898 5897 5897
5921 5922 5922 5922 5922 5921 5920 5921 5919 5918 5917 5916 5915 5915 5914 5914 5914 5913 5913 5913 5913 5913 5912 5912 5912 5912 5911 5911 5911 5910 5910 5909 5909 5908 5908 5907 5906 5906 5905 5904 5903 5902 5901 5900 5899 5898 5897 5897 5896
5921 5921 5922 5922 5920 5919 5918 5918 5918 5916 5916 5915 5914 5914 5914 5913 5913 5912 5912 5912 5912 5912 5911 5911 5911 5910 5910 5910 5909 5909 5908 5908 5907 5906 5906 5905 5904 5904 5903 5902 5901 5900 5899 5899 5898 5897 5896 5895 5895
5920 5921 5920 5921 5920 5915 5914 5917 5915 5915 5914 5915 5913 5913 5912 5912 5911 5911 5910 5910 5910 5910 5910 5910 5909 5909 5908 5908 5907 5906 5906 5905 5904 5904 5903 5902 5901 5901 5900 5899 5898 5897 5896 5896 5895 5894 5894 5893 5892
5917 5919 5920 5922 5920 5915 5913 5915 5915 5914 5913 5913 5912 5910 5910 5910 5910 5909 5909 5909 5909 5909 5908 5908 5907 5907 5906 5905 5904 5903 5903 5902 5901 5900 5899 5898 5898 5897 5896 5895 5893 5893 5892 5891 5891 5891 5890 5890 5889
5914 5917 5918 5921 5918 5916 5914 5915 5914 5914 5912 5910 5910 5908 5908 5908 5907 5907 5907 5907 5907 5907 5906 5906 5905 5904 5903 5902 5901 5900 5899 5898 5897 5896 5895 5894 5893 5892 5891 5890 5889 5888 5887 5887 5886 5886 5885 5885 5885
5910 5913 5916 5918 5915 5914 5912 5913 5913 5913 5910 5907 5903 5901 5904 5905 5905 5905 5905 5904 5904 5903 5903 5902 5901 5900 5899 5898 5896 5895 5894 5893 5892 5891 5889 5888 5888 5887 5886 5886 5884 5883 5882 5881 5880 5880 5880 5879 5879
5906 5908 5910 5911 5911 5910 5910 5912 5913 5912 5909 5903 5898 5891 5894 5901 5902 5902 5901 5901 5900 5899 5898 5897 5896 5895 5893 5892 5891 5890 5889 5887 5886 5884 5883 5882 5881 5880 5880 5880 5879 5877 5876 5875 5874 5873 5872 5872 5872
5901 5903 5904 5905 5905 5906 5907 5909 5910 5910 5907 5900 5894 5891 5892 5897 5898 5898 5898 5897 5896 5895 5893 5892 5891 5890 5888 5886 5885 5883 5882 5881 5879 5878 5876 5875 5874 5873 5873 5873 5872 5871 5870 5869 5868 5867 5866 5866 5865
5895 5897 5899 5900 5901 5901 5902 5903 5905 5906 5903 5895 5890 5890 5891 5892 5891 5892 5893 5892 5891 5890 5888 5887 5885 5884 5882 5880 5878 5876 5874 5873 5872 5871 5870 5869 5867 5866 5865 5865 5864 5863 5862 5862 5862 5861 5859 5859 5858
5890 5891 5892 5894 5896 5897 5898 5899 5900 5902 5900 5892 5886 5886 5885 5884 5885 5886 5887 5887 5886 5884 5882 5880 5878 5876 5874 5872 5870 5869 5867 5866 5865 5864 5863 5862 5860 5859 5858 5858 5857 5857 5856 5855 5854 5854 5853 5852 5851
5885 5886 5887 5889 5891 5893 5894 5895 5896 5898 5898 5891 5885 5882 5882 5882 5881 5882 5881 5880 5879 5876 5874 5872 5870 5869 5866 5865 5863 5862 5860 5859 5858 5856 5855 5855 5854 5853 5852 5851 5851 5850 5850 5849 5848 5847 5846 5846 5845
5881 5882 5883 5885 5888 5890 5891 5890 5892 5893 5892 5888 5884 5882 5879 5879 5879 5876 5874 5872 5869 5867 5866 5863 5861 5860 5858 5857 5855 5855 5854 5852 5851 5849 5848 5848 5847 5846 5845 5845 5844 5844 5844 5843 5842 5841 5840 5839 5838
5878 5879 5880 5883 5886 5887 5886 5886 5888 5887 5884 5882 5879 5878 5875 5875 5874 5870 5867 5863 5859 5857 5856 5854 5852 5852 5852 5850 5848 5848 5847 5845 5844 5842 5841 5841 5840 5840 5839 5839 5839 5838 5838 5837 5836 5835 5834 5833 5831
5879 5881 5882 5883 5882 5880 5879 5880 5882 5880 5877 5875 5874 5872 5870 5869 5867 5862 5858 5854 5848 5846 5843 5842 5843 5844 5844 5843 5842 5840 5839 5838 5837 5836 5835 5834 5834 5834 5833 5833 5833 5833 5832 5832 5830 5829 5828 5826 5824
5872 5874 5876 5879 5877 5874 5872 5873 5874 5874 5872 5870 5869 5867 5864 5861 5858 5851 5846 5840 5835 5834 5829 5830 5833 5834 5835 5835 5834 5833 5832 5831 5830 5829 5829 5828 5828 5828 5828 5828 5828 5828 5827 5826 5825 5824 5822 5821 5818
5870 5872 5873 5873 5871 5869 5867 5867 5867 5867 5866 5864 5862 5860 5856 5850 5846 5836 5828 5819 5823 5822 5815 5811 5817 5823 5825 5825 5825 5825 5824 5824 5824 5822 5822 5822 5822 5822 5822 5823 5823 5823 5822 5821 5820 5819 5817 5815 5812
5867 5867 5866 5865 5863 5863 5863 5862 5861 5861 5859 5855 5852 5850 5845 5839 5836 5825 5820 5812 5813 5811 5800 5804 5808 5814 5815 5818 5818 5818 5817 5816 5816 5816 5816 5816 5816 5816 5817 5817 5817 5817 5817 5816 5815 5813 5811 5810 5807
5864 5862 5861 5860 5859 5859 5861 5859 5857 5853 5850 5848 5846 5844 5839 5832 5830 5824 5820 5815 5811 5809 5808 5808 5809 5808 5809 5810 5810 5810 5809 5809 5809 5808 5808 5809 5810 5810 5811 5811 5811 5811 5811 5810 5809 5807 5805 5804 5801
5860 5858 5857 5856 5855 5854 5854 5854 5851 5847 5844 5843 5843 5841 5837 5831 5827 5822 5817 5814 5811 5809 5808 5806 5806 5804 5803 5802 5803 5802 5802 5802 5802 5802 5802 5802 5803 5804 5804 5805 5805 5804 5804 5803 5802 5801 5799 5797 5795
5857 5856 5854 5853 5851 5848 5845 5843 5843 5842 5841 5839 5839 5836 5833 5828 5823 5819 5815 5811 5808 5805 5803 5801 5800 5799 5798 5796 5795 5794 5795 5794 5795 5795 5795 5796 5796 5796 5797 5798 5798 5797 5797 5796 5795 5794 5792 5791 5789
5856 5854 5852 5851 5846 5841 5837 5837 5838 5837 5836 5834 5832 5830 5827 5823 5819 5815 5811 5808 5804 5801 5798 5795 5793 5792 5791 5789 5788 5787 5786 5786 5786 5787 5787 5788 5788 5788 5788 5789 5790 5789 5789 5789 5788 5787 5786 5784 5782
5854 5853 5852 5849 5847 5845 5839 5837 5834 5832 5830 5828 5826 5824 5821 5818 5814 5809 5805 5800 5797 5793 5790 5788 5785 5783 5781 5780 5778 5777 5777 5777 5777 5777 5778 5778 5778 5779 5779 5780 5780 5781 5781 5780 5780 5779 5778 5777 5775
5853 5852 5850 5847 5845 5844 5843 5834 5829 5825 5822 5820 5820 5818 5815 5811 5806 5802 5797 5792 5787 5783 5780 5777 5774 5772 5770 5768 5767 5766 5765 5765 5766 5766 5766 5767 5768 5768 5769 5769 5770 5771 5771 5771 5771 5771 5770 5769 5768
5853 5850 5848 5845 5842 5840 5839 5831 5825 5821 5817 5814 5813 5811 5807 5802 5797 5793 5788 5783 5778 5773 5768 5765 5762 5759 5757 5755 5754 5753 5752 5752 5752 5752 5753 5753 5754 5756 5757 5758 5759 5760 5761 5761 5762 5762 5762 5761 5761
5851 5849 5846 5843 5840 5837 5833 5830 5823 5818 5813 5809 5806 5802 5798 5793 5787 5782 5777 5771 5767 5761 5756 5751 5747 5744 5742 5740 5738 5737 5736 5735 5735 5736 5736 5737 5739 5740 5742 5744 5746 5747 5749 5750 5751 5752 5752 5753 5752
5847 5846 5843 5840 5836 5833 5829 5825 5820 5814 5809 5804 5798 5793 5787 5781 5776 5770 5764 5758 5753 5747 5742 5737 5732 5728 5725 5722 5721 5719 5718 5717 5717 5717 5718 5719 5721 5723 5726 5728 5731 5733 5736 5738 5739 5741 5742 5743 5743